iso_date,epoch_date,Year,Hour,Min,DOY,POS_DOY,Lat,Lon,BP,Ts,Ta,has_bp,has_ts,has_ta,BuoyID,Buoy_Type,Buoy_Owner,Logistics,Hemisphere
2014-10-08T19:00:28Z,1412794829,2014,19,0,281.792,281.792,79.0232,-149.8376,1024.18,-999.00,-7.21,yes,no,yes,300025010627610,unknown,unknown,unknown,North
2014-10-08T19:59:31Z,1412798371,2014,20,0,281.833,281.833,79.0214,-149.8358,1024.0,-999.00,-6.2,yes,no,yes,300025010627610,unknown,unknown,unknown,North
2014-10-08T21:00:00Z,1412802000,2014,21,0,281.875,281.875,79.0204,-149.8348,1023.61,-999.00,-6.16,yes,no,yes,300025010627610,unknown,unknown,unknown,North
2014-10-08T22:00:28Z,1412805629,2014,22,0,281.917,281.917,79.0198,-149.8336,1023.19,-999.00,-6.18,yes,no,yes,300025010627610,unknown,unknown,unknown,North
2014-10-08T22:59:31Z,1412809171,2014,23,0,281.958,281.958,79.0191,-149.831,1023.05,-999.00,-6.24,yes,no,yes,300025010627610,unknown,unknown,unknown,North
2014-10-09T00:00:00Z,1412812800,2014,0,0,282.0,282.0,79.0179,-149.8267,1022.52,-999.00,-6.19,yes,no,yes,300025010627610,unknown,unknown,unknown,North
2014-10-09T01:00:28Z,1412816429,2014,1,0,282.042,282.042,79.0161,-149.8209,1022.24,-999.00,-6.12,yes,no,yes,300025010627610,unknown,unknown,unknown,North
2014-10-09T01:59:31Z,1412819971,2014,2,0,282.083,282.083,79.0133,-149.8155,1021.57,-999.00,-6.0,yes,no,yes,300025010627610,unknown,unknown,unknown,North
2014-10-09T03:00:00Z,1412823600,2014,3,0,282.125,282.125,79.0094,-149.8085,1021.14,-999.00,-5.92,yes,no,yes,300025010627610,unknown,unknown,unknown,North
2014-10-09T04:00:28Z,1412827229,2014,4,0,282.167,282.167,79.0044,-149.8043,1021.07,-999.00,-6.9,yes,no,yes,300025010627610,unknown,unknown,unknown,North
2014-10-09T04:59:31Z,1412830771,2014,5,0,282.208,282.208,78.9996,-149.8035,1020.72,-999.00,-7.07,yes,no,yes,300025010627610,unknown,unknown,unknown,North
2014-10-09T06:00:00Z,1412834400,2014,6,0,282.25,282.25,78.9947,-149.8044,1020.4,-999.00,-7.23,yes,no,yes,300025010627610,unknown,unknown,unknown,North
2014-10-09T07:00:28Z,1412838029,2014,7,0,282.292,282.292,78.9902,-149.8069,1020.05,-999.00,-7.21,yes,no,yes,300025010627610,unknown,unknown,unknown,North
2014-10-09T07:59:31Z,1412841571,2014,8,0,282.333,282.333,78.9863,-149.8109,1019.83,-999.00,-7.35,yes,no,yes,300025010627610,unknown,unknown,unknown,North
2014-10-09T09:00:00Z,1412845200,2014,9,0,282.375,282.375,78.9828,-149.8146,1019.38,-999.00,-7.64,yes,no,yes,300025010627610,unknown,unknown,unknown,North
2014-10-09T10:00:28Z,1412848829,2014,10,0,282.417,282.417,78.9791,-149.8177,1018.67,-999.00,-7.85,yes,no,yes,300025010627610,unknown,unknown,unknown,North
2014-10-09T10:59:31Z,1412852371,2014,11,0,282.458,282.458,78.9754,-149.8211,1018.24,-999.00,-7.93,yes,no,yes,300025010627610,unknown,unknown,unknown,North
2014-10-09T12:00:00Z,1412856000,2014,12,0,282.5,282.5,78.9715,-149.8273,1017.82,-999.00,-8.31,yes,no,yes,300025010627610,unknown,unknown,unknown,North
2014-10-09T13:00:28Z,1412859629,2014,13,0,282.542,282.542,78.9676,-149.8348,1017.11,-999.00,-8.27,yes,no,yes,300025010627610,unknown,unknown,unknown,North
2014-10-09T13:59:31Z,1412863171,2014,14,0,282.583,282.583,78.9639,-149.8427,1016.48,-999.00,-8.37,yes,no,yes,300025010627610,unknown,unknown,unknown,North
2014-10-09T15:00:00Z,1412866800,2014,15,0,282.625,282.625,78.9599,-149.8507,1015.74,-999.00,-8.35,yes,no,yes,300025010627610,unknown,unknown,unknown,North
2014-10-09T16:00:28Z,1412870429,2014,16,0,282.667,282.667,78.9558,-149.86,1015.17,-999.00,-8.31,yes,no,yes,300025010627610,unknown,unknown,unknown,North
2014-10-09T16:59:31Z,1412873971,2014,17,0,282.708,282.708,78.9515,-149.871,1014.68,-999.00,-8.28,yes,no,yes,300025010627610,unknown,unknown,unknown,North
2014-10-09T18:00:00Z,1412877600,2014,18,0,282.75,282.75,78.9469,-149.8827,1014.08,-999.00,-8.49,yes,no,yes,300025010627610,unknown,unknown,unknown,North
2014-10-09T19:00:28Z,1412881229,2014,19,0,282.792,282.792,78.9423,-149.8931,1013.44,-999.00,-8.45,yes,no,yes,300025010627610,unknown,unknown,unknown,North
2014-10-09T19:59:31Z,1412884771,2014,20,0,282.833,282.833,78.9378,-149.9024,1012.77,-999.00,-8.51,yes,no,yes,300025010627610,unknown,unknown,unknown,North
2014-10-09T21:00:00Z,1412888400,2014,21,0,282.875,282.875,78.9331,-149.9142,1012.1,-999.00,-8.72,yes,no,yes,300025010627610,unknown,unknown,unknown,North
2014-10-09T22:00:28Z,1412892029,2014,22,0,282.917,282.917,78.9283,-149.9246,1011.74,-999.00,-8.95,yes,no,yes,300025010627610,unknown,unknown,unknown,North
2014-10-09T22:59:31Z,1412895571,2014,23,0,282.958,282.958,78.9235,-149.9326,1011.32,-999.00,-9.14,yes,no,yes,300025010627610,unknown,unknown,unknown,North
2014-10-10T00:00:00Z,1412899200,2014,0,0,283.0,283.0,78.9185,-149.9392,1010.68,-999.00,-9.27,yes,no,yes,300025010627610,unknown,unknown,unknown,North
2014-10-10T01:00:28Z,1412902829,2014,1,0,283.042,283.042,78.9133,-149.9449,1010.37,-999.00,-9.36,yes,no,yes,300025010627610,unknown,unknown,unknown,North
2014-10-10T01:59:31Z,1412906371,2014,2,0,283.083,283.083,78.9081,-149.9496,1009.91,-999.00,-9.72,yes,no,yes,300025010627610,unknown,unknown,unknown,North
2014-10-10T03:00:00Z,1412910000,2014,3,0,283.125,283.125,78.9031,-149.9531,1009.59,-999.00,-10.45,yes,no,yes,300025010627610,unknown,unknown,unknown,North
2014-10-10T04:00:28Z,1412913629,2014,4,0,283.167,283.167,78.8983,-149.956,1009.41,-999.00,-11.39,yes,no,yes,300025010627610,unknown,unknown,unknown,North
2014-10-10T04:59:31Z,1412917171,2014,5,0,283.208,283.208,78.8937,-149.9582,1009.52,-999.00,-11.92,yes,no,yes,300025010627610,unknown,unknown,unknown,North
2014-10-10T06:00:00Z,1412920800,2014,6,0,283.25,283.25,78.8892,-149.9602,1009.45,-999.00,-12.96,yes,no,yes,300025010627610,unknown,unknown,unknown,North
2014-10-10T07:00:28Z,1412924429,2014,7,0,283.292,283.292,78.885,-149.961,1009.38,-999.00,-13.3,yes,no,yes,300025010627610,unknown,unknown,unknown,North
2014-10-10T07:59:31Z,1412927971,2014,8,0,283.333,283.333,78.8809,-149.9597,1009.41,-999.00,-13.99,yes,no,yes,300025010627610,unknown,unknown,unknown,North
2014-10-10T09:00:00Z,1412931600,2014,9,0,283.375,283.375,78.8765,-149.9569,1009.48,-999.00,-13.83,yes,no,yes,300025010627610,unknown,unknown,unknown,North
2014-10-10T10:00:28Z,1412935229,2014,10,0,283.417,283.417,78.8711,-149.954,1009.38,-999.00,-13.55,yes,no,yes,300025010627610,unknown,unknown,unknown,North
2014-10-10T10:59:31Z,1412938771,2014,11,0,283.458,283.458,78.8651,-149.9526,1009.53,-999.00,-12.16,yes,no,yes,300025010627610,unknown,unknown,unknown,North
2014-10-10T12:00:00Z,1412942400,2014,12,0,283.5,283.5,78.859,-149.9515,1009.52,-999.00,-11.92,yes,no,yes,300025010627610,unknown,unknown,unknown,North
2014-10-10T13:00:28Z,1412946029,2014,13,0,283.542,283.542,78.8525,-149.9512,1009.48,-999.00,-11.45,yes,no,yes,300025010627610,unknown,unknown,unknown,North
2014-10-10T13:59:31Z,1412949571,2014,14,0,283.583,283.583,78.8459,-149.9529,1009.53,-999.00,-11.36,yes,no,yes,300025010627610,unknown,unknown,unknown,North
2014-10-10T15:00:00Z,1412953200,2014,15,0,283.625,283.625,78.8396,-149.9562,1009.66,-999.00,-11.49,yes,no,yes,300025010627610,unknown,unknown,unknown,North
2014-10-10T16:00:28Z,1412956829,2014,16,0,283.667,283.667,78.8337,-149.9581,1009.7,-999.00,-11.79,yes,no,yes,300025010627610,unknown,unknown,unknown,North
2014-10-10T16:59:31Z,1412960371,2014,17,0,283.708,283.708,78.8282,-149.9589,1009.59,-999.00,-12.01,yes,no,yes,300025010627610,unknown,unknown,unknown,North
2014-10-10T18:00:00Z,1412964000,2014,18,0,283.75,283.75,78.8227,-149.9583,1009.73,-999.00,-12.28,yes,no,yes,300025010627610,unknown,unknown,unknown,North
2014-10-10T19:00:28Z,1412967629,2014,19,0,283.792,283.792,78.8174,-149.9564,1009.84,-999.00,-12.41,yes,no,yes,300025010627610,unknown,unknown,unknown,North
2014-10-10T19:59:31Z,1412971171,2014,20,0,283.833,283.833,78.8122,-149.9532,1009.88,-999.00,-12.55,yes,no,yes,300025010627610,unknown,unknown,unknown,North
2014-10-10T21:00:00Z,1412974800,2014,21,0,283.875,283.875,78.807,-149.9487,1010.02,-999.00,-12.99,yes,no,yes,300025010627610,unknown,unknown,unknown,North
2014-10-10T22:00:28Z,1412978429,2014,22,0,283.917,283.917,78.8018,-149.9434,1010.14,-999.00,-12.84,yes,no,yes,300025010627610,unknown,unknown,unknown,North
2014-10-10T22:59:31Z,1412981971,2014,23,0,283.958,283.958,78.7966,-149.9383,1010.18,-999.00,-12.64,yes,no,yes,300025010627610,unknown,unknown,unknown,North
2014-10-11T00:00:00Z,1412985600,2014,0,0,284.0,284.0,78.7913,-149.9335,1010.15,-999.00,-12.89,yes,no,yes,300025010627610,unknown,unknown,unknown,North
2014-10-11T01:00:28Z,1412989229,2014,1,0,284.042,284.042,78.7856,-149.9307,1010.25,-999.00,-13.08,yes,no,yes,300025010627610,unknown,unknown,unknown,North
2014-10-11T01:59:31Z,1412992771,2014,2,0,284.083,284.083,78.7801,-149.9297,1010.29,-999.00,-13.44,yes,no,yes,300025010627610,unknown,unknown,unknown,North
2014-10-11T03:00:00Z,1412996400,2014,3,0,284.125,284.125,78.7749,-149.9296,1010.43,-999.00,-13.8,yes,no,yes,300025010627610,unknown,unknown,unknown,North
2014-10-11T04:00:28Z,1413000029,2014,4,0,284.167,284.167,78.7702,-149.9306,1010.53,-999.00,-14.49,yes,no,yes,300025010627610,unknown,unknown,unknown,North
2014-10-11T04:59:31Z,1413003571,2014,5,0,284.208,284.208,78.7657,-149.9325,1010.67,-999.00,-14.13,yes,no,yes,300025010627610,unknown,unknown,unknown,North
2014-10-11T06:00:00Z,1413007200,2014,6,0,284.25,284.25,78.7613,-149.9347,1010.86,-999.00,-13.34,yes,no,yes,300025010627610,unknown,unknown,unknown,North
2014-10-11T07:00:28Z,1413010829,2014,7,0,284.292,284.292,78.757,-149.936,1010.97,-999.00,-12.95,yes,no,yes,300025010627610,unknown,unknown,unknown,North
2014-10-11T07:59:31Z,1413014371,2014,8,0,284.333,284.333,78.7529,-149.9364,1011.39,-999.00,-13.29,yes,no,yes,300025010627610,unknown,unknown,unknown,North
2014-10-11T09:00:00Z,1413018000,2014,9,0,284.375,284.375,78.7489,-149.9353,1011.52,-999.00,-13.95,yes,no,yes,300025010627610,unknown,unknown,unknown,North
2014-10-11T10:00:28Z,1413021629,2014,10,0,284.417,284.417,78.7448,-149.9322,1011.52,-999.00,-14.92,yes,no,yes,300025010627610,unknown,unknown,unknown,North
2014-10-11T10:59:31Z,1413025171,2014,11,0,284.458,284.458,78.7407,-149.9275,1011.82,-999.00,-15.71,yes,no,yes,300025010627610,unknown,unknown,unknown,North
2014-10-11T12:00:00Z,1413028800,2014,12,0,284.5,284.5,78.7363,-149.9224,1012.1,-999.00,-15.29,yes,no,yes,300025010627610,unknown,unknown,unknown,North
2014-10-11T13:00:28Z,1413032429,2014,13,0,284.542,284.542,78.7314,-149.9195,1012.03,-999.00,-15.15,yes,no,yes,300025010627610,unknown,unknown,unknown,North
2014-10-11T13:59:31Z,1413035971,2014,14,0,284.583,284.583,78.7267,-149.9179,1012.1,-999.00,-15.13,yes,no,yes,300025010627610,unknown,unknown,unknown,North
2014-10-11T15:00:00Z,1413039600,2014,15,0,284.625,284.625,78.7225,-149.9179,1012.31,-999.00,-14.84,yes,no,yes,300025010627610,unknown,unknown,unknown,North
2014-10-11T16:00:28Z,1413043229,2014,16,0,284.667,284.667,78.7188,-149.919,1012.52,-999.00,-14.61,yes,no,yes,300025010627610,unknown,unknown,unknown,North
2014-10-11T16:59:31Z,1413046771,2014,17,0,284.708,284.708,78.7157,-149.9199,1012.81,-999.00,-14.76,yes,no,yes,300025010627610,unknown,unknown,unknown,North
2014-10-11T18:00:00Z,1413050400,2014,18,0,284.75,284.75,78.7128,-149.9196,1013.27,-999.00,-13.71,yes,no,yes,300025010627610,unknown,unknown,unknown,North
2014-10-11T19:00:28Z,1413054029,2014,19,0,284.792,284.792,78.71,-149.9182,1013.37,-999.00,-13.42,yes,no,yes,300025010627610,unknown,unknown,unknown,North
2014-10-11T19:59:31Z,1413057571,2014,20,0,284.833,284.833,78.7073,-149.9159,1013.76,-999.00,-13.32,yes,no,yes,300025010627610,unknown,unknown,unknown,North
2014-10-11T21:00:00Z,1413061200,2014,21,0,284.875,284.875,78.7046,-149.9122,1014.18,-999.00,-13.07,yes,no,yes,300025010627610,unknown,unknown,unknown,North
2014-10-11T22:00:28Z,1413064829,2014,22,0,284.917,284.917,78.7017,-149.908,1014.5,-999.00,-13.3,yes,no,yes,300025010627610,unknown,unknown,unknown,North
2014-10-11T22:59:31Z,1413068371,2014,23,0,284.958,284.958,78.6986,-149.9041,1014.71,-999.00,-13.64,yes,no,yes,300025010627610,unknown,unknown,unknown,North
2014-10-12T00:00:00Z,1413072000,2014,0,0,285.0,285.0,78.6951,-149.9016,1015.21,-999.00,-13.75,yes,no,yes,300025010627610,unknown,unknown,unknown,North
2014-10-12T01:00:28Z,1413075629,2014,1,0,285.042,285.042,78.6917,-149.9009,1015.53,-999.00,-13.99,yes,no,yes,300025010627610,unknown,unknown,unknown,North
2014-10-12T01:59:31Z,1413079171,2014,2,0,285.083,285.083,78.6885,-149.9013,1015.77,-999.00,-13.97,yes,no,yes,300025010627610,unknown,unknown,unknown,North
2014-10-12T03:00:00Z,1413082800,2014,3,0,285.125,285.125,78.6857,-149.9025,1016.2,-999.00,-14.1,yes,no,yes,300025010627610,unknown,unknown,unknown,North
2014-10-12T04:00:28Z,1413086429,2014,4,0,285.167,285.167,78.6833,-149.9038,1016.62,-999.00,-14.31,yes,no,yes,300025010627610,unknown,unknown,unknown,North
2014-10-12T04:59:31Z,1413089971,2014,5,0,285.208,285.208,78.6813,-149.9047,1016.91,-999.00,-14.06,yes,no,yes,300025010627610,unknown,unknown,unknown,North
2014-10-12T06:00:00Z,1413093600,2014,6,0,285.25,285.25,78.6797,-149.9045,1017.15,-999.00,-13.18,yes,no,yes,300025010627610,unknown,unknown,unknown,North
2014-10-12T07:00:28Z,1413097229,2014,7,0,285.292,285.292,78.6783,-149.9027,1017.54,-999.00,-12.72,yes,no,yes,300025010627610,unknown,unknown,unknown,North
2014-10-12T07:59:31Z,1413100771,2014,8,0,285.333,285.333,78.6769,-149.8997,1017.89,-999.00,-12.23,yes,no,yes,300025010627610,unknown,unknown,unknown,North
2014-10-12T09:00:00Z,1413104400,2014,9,0,285.375,285.375,78.6755,-149.8959,1018.49,-999.00,-11.87,yes,no,yes,300025010627610,unknown,unknown,unknown,North
2014-10-12T10:00:28Z,1413108029,2014,10,0,285.417,285.417,78.6739,-149.8917,1018.83,-999.00,-11.63,yes,no,yes,300025010627610,unknown,unknown,unknown,North
2014-10-12T10:59:31Z,1413111571,2014,11,0,285.458,285.458,78.6722,-149.8883,1019.22,-999.00,-11.36,yes,no,yes,300025010627610,unknown,unknown,unknown,North
2014-10-12T12:00:00Z,1413115200,2014,12,0,285.5,285.5,78.6706,-149.8857,1019.78,-999.00,-11.25,yes,no,yes,300025010627610,unknown,unknown,unknown,North
2014-10-12T13:00:28Z,1413118829,2014,13,0,285.542,285.542,78.6689,-149.8836,1020.07,-999.00,-11.42,yes,no,yes,300025010627610,unknown,unknown,unknown,North
2014-10-12T13:59:31Z,1413122371,2014,14,0,285.583,285.583,78.6674,-149.8819,1020.34,-999.00,-11.13,yes,no,yes,300025010627610,unknown,unknown,unknown,North
2014-10-12T15:00:00Z,1413126000,2014,15,0,285.625,285.625,78.6662,-149.88,1020.8,-999.00,-10.99,yes,no,yes,300025010627610,unknown,unknown,unknown,North
2014-10-12T16:00:28Z,1413129629,2014,16,0,285.667,285.667,78.6652,-149.8768,1021.08,-999.00,-10.86,yes,no,yes,300025010627610,unknown,unknown,unknown,North
2014-10-12T16:59:31Z,1413133171,2014,17,0,285.708,285.708,78.6642,-149.8727,1021.71,-999.00,-10.78,yes,no,yes,300025010627610,unknown,unknown,unknown,North
2014-10-12T18:00:00Z,1413136800,2014,18,0,285.75,285.75,78.6632,-149.8671,1022.14,-999.00,-10.81,yes,no,yes,300025010627610,unknown,unknown,unknown,North
2014-10-12T19:00:28Z,1413140429,2014,19,0,285.792,285.792,78.6622,-149.861,1022.63,-999.00,-10.68,yes,no,yes,300025010627610,unknown,unknown,unknown,North
2014-10-12T19:59:31Z,1413143971,2014,20,0,285.833,285.833,78.6611,-149.8535,1022.91,-999.00,-10.73,yes,no,yes,300025010627610,unknown,unknown,unknown,North
2014-10-12T21:00:00Z,1413147600,2014,21,0,285.875,285.875,78.6601,-149.845,1023.55,-999.00,-11.41,yes,no,yes,300025010627610,unknown,unknown,unknown,North
2014-10-12T22:00:28Z,1413151229,2014,22,0,285.917,285.917,78.6592,-149.8384,1024.04,-999.00,-11.21,yes,no,yes,300025010627610,unknown,unknown,unknown,North
2014-10-12T22:59:31Z,1413154771,2014,23,0,285.958,285.958,78.6585,-149.8317,1024.57,-999.00,-11.63,yes,no,yes,300025010627610,unknown,unknown,unknown,North
2014-10-13T00:00:00Z,1413158400,2014,0,0,286.0,286.0,78.6578,-149.8267,1024.82,-999.00,-13.47,yes,no,yes,300025010627610,unknown,unknown,unknown,North
2014-10-13T01:00:28Z,1413162029,2014,1,0,286.042,286.042,78.6572,-149.8237,1025.31,-999.00,-14.76,yes,no,yes,300025010627610,unknown,unknown,unknown,North
2014-10-13T01:59:31Z,1413165571,2014,2,0,286.083,286.083,78.657,-149.8214,1025.85,-999.00,-15.96,yes,no,yes,300025010627610,unknown,unknown,unknown,North
2014-10-13T03:00:00Z,1413169200,2014,3,0,286.125,286.125,78.6567,-149.8197,1026.29,-999.00,-15.75,yes,no,yes,300025010627610,unknown,unknown,unknown,North
2014-10-13T04:00:28Z,1413172829,2014,4,0,286.167,286.167,78.6565,-149.8181,1026.62,-999.00,-15.2,yes,no,yes,300025010627610,unknown,unknown,unknown,North
2014-10-13T04:59:31Z,1413176371,2014,5,0,286.208,286.208,78.6563,-149.8167,1027.06,-999.00,-12.14,yes,no,yes,300025010627610,unknown,unknown,unknown,North
2014-10-13T06:00:00Z,1413180000,2014,6,0,286.25,286.25,78.656,-149.8149,1027.62,-999.00,-11.08,yes,no,yes,300025010627610,unknown,unknown,unknown,North
2014-10-13T07:00:28Z,1413183629,2014,7,0,286.292,286.292,78.6554,-149.812,1028.03,-999.00,-10.69,yes,no,yes,300025010627610,unknown,unknown,unknown,North
2014-10-13T07:59:31Z,1413187171,2014,8,0,286.333,286.333,78.6545,-149.8081,1028.51,-999.00,-10.62,yes,no,yes,300025010627610,unknown,unknown,unknown,North
2014-10-13T09:00:00Z,1413190800,2014,9,0,286.375,286.375,78.6532,-149.8047,1029.01,-999.00,-10.77,yes,no,yes,300025010627610,unknown,unknown,unknown,North
2014-10-13T10:00:28Z,1413194429,2014,10,0,286.417,286.417,78.6519,-149.802,1029.43,-999.00,-11.04,yes,no,yes,300025010627610,unknown,unknown,unknown,North
2014-10-13T10:59:31Z,1413197971,2014,11,0,286.458,286.458,78.6508,-149.8011,1029.94,-999.00,-10.94,yes,no,yes,300025010627610,unknown,unknown,unknown,North
2014-10-13T12:00:00Z,1413201600,2014,12,0,286.5,286.5,78.65,-149.8014,1030.4,-999.00,-10.79,yes,no,yes,300025010627610,unknown,unknown,unknown,North
2014-10-13T13:00:28Z,1413205229,2014,13,0,286.542,286.542,78.6493,-149.8023,1030.75,-999.00,-10.73,yes,no,yes,300025010627610,unknown,unknown,unknown,North
2014-10-13T13:59:31Z,1413208771,2014,14,0,286.583,286.583,78.6489,-149.8013,1031.14,-999.00,-10.68,yes,no,yes,300025010627610,unknown,unknown,unknown,North
2014-10-13T15:00:00Z,1413212400,2014,15,0,286.625,286.625,78.6488,-149.8004,1031.39,-999.00,-10.86,yes,no,yes,300025010627610,unknown,unknown,unknown,North
2014-10-13T16:00:28Z,1413216029,2014,16,0,286.667,286.667,78.6488,-149.7999,1031.74,-999.00,-11.32,yes,no,yes,300025010627610,unknown,unknown,unknown,North
2014-10-13T16:59:31Z,1413219571,2014,17,0,286.708,286.708,78.6488,-149.7997,1032.34,-999.00,-11.45,yes,no,yes,300025010627610,unknown,unknown,unknown,North
2014-10-13T18:00:00Z,1413223200,2014,18,0,286.75,286.75,78.6486,-149.7993,1032.73,-999.00,-11.23,yes,no,yes,300025010627610,unknown,unknown,unknown,North
2014-10-13T19:00:28Z,1413226829,2014,19,0,286.792,286.792,78.6482,-149.7985,1033.22,-999.00,-10.7,yes,no,yes,300025010627610,unknown,unknown,unknown,North
2014-10-13T19:59:31Z,1413230371,2014,20,0,286.833,286.833,78.6477,-149.7973,1033.51,-999.00,-10.53,yes,no,yes,300025010627610,unknown,unknown,unknown,North
2014-10-13T21:00:00Z,1413234000,2014,21,0,286.875,286.875,78.647,-149.7963,1033.79,-999.00,-10.44,yes,no,yes,300025010627610,unknown,unknown,unknown,North
2014-10-13T22:00:28Z,1413237629,2014,22,0,286.917,286.917,78.6463,-149.7946,1034.07,-999.00,-10.4,yes,no,yes,300025010627610,unknown,unknown,unknown,North
2014-10-13T22:59:31Z,1413241171,2014,23,0,286.958,286.958,78.6454,-149.7939,1034.42,-999.00,-10.48,yes,no,yes,300025010627610,unknown,unknown,unknown,North
2014-10-14T00:00:00Z,1413244800,2014,0,0,287.0,287.0,78.6444,-149.7939,1034.71,-999.00,-10.88,yes,no,yes,300025010627610,unknown,unknown,unknown,North
2014-10-14T01:00:28Z,1413248429,2014,1,0,287.042,287.042,78.6431,-149.795,1034.99,-999.00,-11.1,yes,no,yes,300025010627610,unknown,unknown,unknown,North
2014-10-14T01:59:31Z,1413251971,2014,2,0,287.083,287.083,78.6417,-149.7975,1035.2,-999.00,-12.1,yes,no,yes,300025010627610,unknown,unknown,unknown,North
2014-10-14T03:00:00Z,1413255600,2014,3,0,287.125,287.125,78.6401,-149.8013,1035.48,-999.00,-12.4,yes,no,yes,300025010627610,unknown,unknown,unknown,North
2014-10-14T04:00:28Z,1413259229,2014,4,0,287.167,287.167,78.6385,-149.8072,1035.87,-999.00,-12.41,yes,no,yes,300025010627610,unknown,unknown,unknown,North
2014-10-14T04:59:31Z,1413262771,2014,5,0,287.208,287.208,78.6368,-149.8131,1035.91,-999.00,-12.32,yes,no,yes,300025010627610,unknown,unknown,unknown,North
2014-10-14T06:00:00Z,1413266400,2014,6,0,287.25,287.25,78.6351,-149.82,1036.19,-999.00,-11.98,yes,no,yes,300025010627610,unknown,unknown,unknown,North
2014-10-14T07:00:28Z,1413270029,2014,7,0,287.292,287.292,78.6337,-149.8275,1036.4,-999.00,-12.37,yes,no,yes,300025010627610,unknown,unknown,unknown,North
2014-10-14T07:59:31Z,1413273571,2014,8,0,287.333,287.333,78.6323,-149.8344,1036.61,-999.00,-12.61,yes,no,yes,300025010627610,unknown,unknown,unknown,North
2014-10-14T09:00:00Z,1413277200,2014,9,0,287.375,287.375,78.6307,-149.841,1036.93,-999.00,-12.64,yes,no,yes,300025010627610,unknown,unknown,unknown,North
2014-10-14T10:00:28Z,1413280829,2014,10,0,287.417,287.417,78.6291,-149.8469,1037.21,-999.00,-12.86,yes,no,yes,300025010627610,unknown,unknown,unknown,North
2014-10-14T10:59:31Z,1413284371,2014,11,0,287.458,287.458,78.6272,-149.8534,1037.36,-999.00,-14.01,yes,no,yes,300025010627610,unknown,unknown,unknown,North
2014-10-14T12:00:00Z,1413288000,2014,12,0,287.5,287.5,78.6252,-149.8598,1037.32,-999.00,-15.47,yes,no,yes,300025010627610,unknown,unknown,unknown,North
2014-10-14T13:00:28Z,1413291629,2014,13,0,287.542,287.542,78.623,-149.867,1037.46,-999.00,-15.63,yes,no,yes,300025010627610,unknown,unknown,unknown,North
2014-10-14T13:59:31Z,1413295171,2014,14,0,287.583,287.583,78.6205,-149.875,1037.25,-999.00,-16.13,yes,no,yes,300025010627610,unknown,unknown,unknown,North
2014-10-14T15:00:00Z,1413298800,2014,15,0,287.625,287.625,78.6178,-149.8837,1037.36,-999.00,-16.4,yes,no,yes,300025010627610,unknown,unknown,unknown,North
2014-10-14T16:00:28Z,1413302429,2014,16,0,287.667,287.667,78.6152,-149.8931,1037.53,-999.00,-16.9,yes,no,yes,300025010627610,unknown,unknown,unknown,North
2014-10-14T16:59:31Z,1413305971,2014,17,0,287.708,287.708,78.613,-149.9031,1037.68,-999.00,-18.66,yes,no,yes,300025010627610,unknown,unknown,unknown,North
2014-10-14T18:00:00Z,1413309600,2014,18,0,287.75,287.75,78.6111,-149.9116,1037.83,-999.00,-20.89,yes,no,yes,300025010627610,unknown,unknown,unknown,North
2014-10-14T19:00:28Z,1413313229,2014,19,0,287.792,287.792,78.6099,-149.9184,1037.83,-999.00,-21.32,yes,no,yes,300025010627610,unknown,unknown,unknown,North
2014-10-14T19:59:31Z,1413316771,2014,20,0,287.833,287.833,78.6092,-149.9239,1037.97,-999.00,-23.37,yes,no,yes,300025010627610,unknown,unknown,unknown,North
2014-10-14T21:00:00Z,1413320400,2014,21,0,287.875,287.875,78.6088,-149.9283,1038.14,-999.00,-23.41,yes,no,yes,300025010627610,unknown,unknown,unknown,North
2014-10-14T22:00:28Z,1413324029,2014,22,0,287.917,287.917,78.6087,-149.9327,1038.11,-999.00,-24.2,yes,no,yes,300025010627610,unknown,unknown,unknown,North
2014-10-14T22:59:31Z,1413327571,2014,23,0,287.958,287.958,78.6085,-149.9362,1038.26,-999.00,-22.72,yes,no,yes,300025010627610,unknown,unknown,unknown,North
2014-10-15T00:00:00Z,1413331200,2014,0,0,288.0,288.0,78.6082,-149.9408,1038.02,-999.00,-21.97,yes,no,yes,300025010627610,unknown,unknown,unknown,North
2014-10-15T01:00:28Z,1413334829,2014,1,0,288.042,288.042,78.6079,-149.9445,1038.08,-999.00,-20.85,yes,no,yes,300025010627610,unknown,unknown,unknown,North
2014-10-15T01:59:31Z,1413338371,2014,2,0,288.083,288.083,78.6073,-149.9487,1038.0,-999.00,-18.35,yes,no,yes,300025010627610,unknown,unknown,unknown,North
2014-10-15T03:00:00Z,1413342000,2014,3,0,288.125,288.125,78.6065,-149.9538,1038.01,-999.00,-17.3,yes,no,yes,300025010627610,unknown,unknown,unknown,North
2014-10-15T04:00:28Z,1413345629,2014,4,0,288.167,288.167,78.6056,-149.9598,1037.85,-999.00,-17.15,yes,no,yes,300025010627610,unknown,unknown,unknown,North